TimeHST,TemperatureF,Dew PointF,Humidity,Sea Level PressureIn,VisibilityMPH,Wind Direction,Wind SpeedMPH,Gust SpeedMPH,PrecipitationIn,Events,Conditions,WindDirDegrees,DateUTC
12:53 AM,75.0,70.0,84,29.90,10.0,NNE,3.5,-,0.00,,Overcast,20,2014-02-17 10:53:00
1:53 AM,75.9,70.0,82,29.90,10.0,NNW,11.5,-,0.00,Rain,Light Rain,330,2014-02-17 11:53:00
2:53 AM,77.0,70.0,79,29.88,10.0,NNW,12.7,-,0.00,Rain,Light Rain,340,2014-02-17 12:53:00
3:12 AM,77.0,69.8,78,29.87,10.0,NW,17.3,23.0,0.00,Rain,Light Rain,310,2014-02-17 13:12:00
3:33 AM,75.2,69.8,83,29.87,10.0,NNW,10.4,-,0.00,,Overcast,330,2014-02-17 13:33:00
3:53 AM,75.9,71.1,85,29.86,10.0,North,5.8,-,0.00,,Overcast,350,2014-02-17 13:53:00
4:53 AM,75.0,66.9,76,29.87,10.0,North,9.2,-,N/A,,Overcast,10,2014-02-17 14:53:00
5:53 AM,75.9,66.0,71,29.89,10.0,North,6.9,-,N/A,,Overcast,360,2014-02-17 15:53:00
6:53 AM,73.9,66.0,76,29.90,10.0,Calm,Calm,-,N/A,,Clear,0,2014-02-17 16:53:00
7:53 AM,75.0,64.9,71,29.89,10.0,SE,12.7,-,N/A,,Scattered Clouds,140,2014-02-17 17:53:00
8:53 AM,77.0,64.9,66,29.90,10.0,SE,12.7,-,0.00,,Mostly Cloudy,140,2014-02-17 18:53:00
9:53 AM,81.0,64.9,58,29.92,10.0,NNE,9.2,-,N/A,,Partly Cloudy,30,2014-02-17 19:53:00
10:53 AM,80.1,70.0,71,29.92,10.0,South,9.2,-,N/A,,Clear,180,2014-02-17 20:53:00
11:17 AM,78.8,69.8,74,29.91,10.0,South,10.4,-,N/A,,Mostly Cloudy,190,2014-02-17 21:17:00
11:49 AM,78.8,69.8,74,29.90,10.0,SSW,6.9,-,N/A,,Scattered Clouds,200,2014-02-17 21:49:00
11:53 AM,79.0,69.1,72,29.90,10.0,SW,8.1,-,N/A,,Scattered Clouds,220,2014-02-17 21:53:00
12:53 PM,81.0,69.1,67,29.87,10.0,NNW,8.1,-,N/A,,Clear,340,2014-02-17 22:53:00
1:53 PM,82.9,69.1,63,29.86,10.0,NNW,11.5,-,N/A,,Clear,340,2014-02-17 23:53:00
2:53 PM,81.0,69.1,67,29.85,10.0,NW,11.5,-,N/A,,Partly Cloudy,310,2014-02-18 00:53:00
3:53 PM,79.0,69.1,72,29.86,10.0,SSW,9.2,-,0.00,Rain,Light Rain,200,2014-02-18 01:53:00
4:50 PM,78.8,69.8,74,29.88,10.0,South,8.1,-,0.00,Rain,Light Rain,170,2014-02-18 02:50:00
4:53 PM,79.0,69.1,72,29.88,10.0,South,6.9,-,0.00,Rain,Light Rain,170,2014-02-18 02:53:00
5:07 PM,78.8,69.8,74,29.89,10.0,SSE,6.9,-,0.00,Rain,Light Rain,160,2014-02-18 03:07:00
5:53 PM,77.0,71.1,82,29.90,10.0,SSE,18.4,25.3,0.00,Rain,Light Rain,160,2014-02-18 03:53:00
6:53 PM,73.9,66.9,79,29.88,10.0,SE,26.5,-,0.00,Rain,Light Rain,140,2014-02-18 04:53:00
7:53 PM,73.0,66.9,81,29.92,10.0,ESE,12.7,-,0.00,,Mostly Cloudy,120,2014-02-18 05:53:00
8:53 PM,73.9,66.9,79,29.95,10.0,SE,9.2,-,0.00,Rain,Light Rain,130,2014-02-18 06:53:00
9:06 PM,73.4,66.2,78,29.94,10.0,SSE,6.9,-,0.00,Rain,Light Rain,150,2014-02-18 07:06:00
9:16 PM,73.4,68.0,83,29.93,10.0,SE,15.0,-,0.00,Rain,Light Rain,140,2014-02-18 07:16:00
9:53 PM,73.0,66.9,81,29.90,10.0,SE,17.3,29.9,0.00,Rain,Light Rain,140,2014-02-18 07:53:00
10:53 PM,73.9,64.9,73,29.85,10.0,SE,12.7,-,0.00,,Unknown,140,2014-02-18 08:53:00
11:53 PM,78.1,62.1,58,29.78,10.0,SSE,9.2,-,N/A,,Scattered Clouds,150,2014-02-18 09:53:00